QPF
0.01 0.02 0.05 0.11 0.17 0.17 0.21 0.28 0.35 0.35 0.33 0.30 0.24 0.20 0.18 0.20 0.15 0.13 0.13 0.13 0.15 0.22 0.35 0.38 0.38 0.39 0.36 0.32 0.30 0.24 0.18 0.14 0.15 0.11 0.06 0.04 0.02 0.01 0.01 0.01 0.02 0.02 0.02
0.01 0.02 0.06 0.12 0.13 0.14 0.13 0.14 0.18 0.23 0.25 0.26 0.24 0.21 0.18 0.13 0.11 0.15 0.18 0.21 0.26 0.32 0.42 0.49 0.53 0.52 0.47 0.37 0.28 0.24 0.18 0.13 0.15 0.14 0.11 0.06 0.03 0.01 0.02 0.04 0.06 0.08 0.08
0.02 0.02 0.01 0.02 0.04 0.04 0.06 0.08 0.09 0.11 0.11 0.12 0.14 0.18 0.19 0.13 0.13 0.18 0.21 0.27 0.37 0.44 0.50 0.52 0.50 0.43 0.36 0.26 0.20 0.21 0.18 0.13 0.13 0.15 0.15 0.13 0.10 0.07 0.03 0.04 0.08 0.12 0.13
0.04 0.01 0.01 0.00 0.01 0.01 0.01 0.02 0.02 0.03 0.03 0.03 0.05 0.09 0.10 0.09 0.12 0.20 0.16 0.14 0.18 0.24 0.27 0.29 0.33 0.29 0.26 0.20 0.18 0.20 0.17 0.12 0.10 0.12 0.14 0.16 0.20 0.19 0.10 0.03 0.03 0.05 0.08
0.02 0.01 0.00 0.00 0.00 0.00 0.00 0.00 0.00 0.00 0.00 0.01 0.02 0.03 0.03 0.04 0.05 0.08 0.07 0.05 0.06 0.09 0.12 0.16 0.19 0.17 0.17 0.16 0.16 0.16 0.12 0.10 0.08 0.09 0.12 0.15 0.18 0.21 0.17 0.09 0.05 0.03 0.02
0.00 0.00 0.00 0.00 0.00 0.00 0.00 0.00 0.00 0.00 0.00 0.00 0.01 0.01 0.01 0.01 0.01 0.02 0.03 0.03 0.05 0.05 0.07 0.09 0.11 0.12 0.12 0.11 0.10 0.10 0.09 0.07 0.06 0.07 0.09 0.12 0.15 0.19 0.22 0.17 0.12 0.06 0.02
0.00 0.00 0.00 0.00 0.00 0.00 0.00 0.00 0.00 0.00 0.00 0.00 0.00 0.00 0.00 0.00 0.00 0.01 0.01 0.02 0.02 0.03 0.04 0.05 0.06 0.06 0.06 0.06 0.06 0.06 0.05 0.05 0.06 0.07 0.10 0.13 0.15 0.17 0.21 0.19 0.15 0.09 0.05
0.00 0.00 0.00 0.00 0.00 0.00 0.00 0.00 0.00 0.00 0.00 0.00 0.00 0.00 0.00 0.00 0.00 0.01 0.01 0.01 0.02 0.03 0.04 0.05 0.06 0.06 0.08 0.08 0.08 0.06 0.06 0.07 0.07 0.08 0.10 0.13 0.15 0.17 0.20 0.20 0.14 0.10 0.08
0.00 0.00 0.00 0.00 0.00 0.00 0.00 0.00 0.00 0.00 0.00 0.00 0.00 0.00 0.00 0.00 0.00 0.01 0.01 0.01 0.02 0.03 0.04 0.06 0.09 0.12 0.16 0.18 0.18 0.15 0.14 0.14 0.14 0.12 0.12 0.15 0.17 0.19 0.21 0.20 0.14 0.10 0.07
0.00 0.00 0.00 0.00 0.00 0.00 0.00 0.00 0.00 0.00 0.00 0.00 0.00 0.00 0.00 0.00 0.00 0.01 0.01 0.01 0.02 0.03 0.05 0.09 0.14 0.19 0.23 0.25 0.26 0.25 0.24 0.22 0.19 0.16 0.15 0.15 0.15 0.15 0.17 0.15 0.10 0.07 0.04
0.00 0.00 0.00 0.00 0.00 0.00 0.00 0.00 0.00 0.00 0.00 0.00 0.00 0.00 0.00 0.00 0.00 0.01 0.01 0.01 0.02 0.03 0.05 0.10 0.16 0.23 0.27 0.29 0.30 0.30 0.28 0.27 0.25 0.22 0.19 0.16 0.13 0.09 0.08 0.07 0.04 0.03 0.02
0.00 0.00 0.00 0.00 0.00 0.00 0.00 0.00 0.00 0.00 0.00 0.00 0.00 0.00 0.00 0.00 0.00 0.00 0.01 0.01 0.02 0.03 0.06 0.10 0.13 0.19 0.23 0.24 0.27 0.32 0.31 0.28 0.27 0.24 0.19 0.14 0.09 0.05 0.03 0.02 0.01 0.01 0.00
0.00 0.00 0.00 0.00 0.00 0.00 0.00 0.00 0.00 0.00 0.00 0.00 0.00 0.00 0.00 0.00 0.00 0.00 0.01 0.01 0.01 0.03 0.05 0.08 0.12 0.18 0.24 0.27 0.27 0.29 0.31 0.31 0.28 0.25 0.19 0.12 0.06 0.02 0.01 0.00 0.00 0.00 0.00
0.00 0.00 0.00 0.00 0.00 0.00 0.00 0.00 0.00 0.00 0.00 0.00 0.00 0.00 0.00 0.00 0.00 0.00 0.00 0.01 0.01 0.02 0.04 0.06 0.09 0.15 0.21 0.27 0.33 0.32 0.30 0.23 0.16 0.12 0.09 0.06 0.03 0.01 0.00 0.00 0.00 0.00 0.00
0.00 0.00 0.00 0.00 0.00 0.00 0.00 0.00 0.00 0.00 0.00 0.00 0.00 0.00 0.01 0.00 0.00 0.00 0.00 0.00 0.00 0.01 0.03 0.07 0.09 0.11 0.15 0.21 0.19 0.16 0.14 0.09 0.05 0.03 0.02 0.02 0.01 0.00 0.00 0.00 0.00 0.00 0.00
0.00 0.00 0.00 0.00 0.00 0.00 0.00 0.00 0.00 0.00 0.00 0.00 0.00 0.01 0.01 0.00 0.00 0.00 0.00 0.00 0.00 0.01 0.02 0.05 0.09 0.10 0.12 0.19 0.12 0.06 0.04 0.04 0.03 0.02 0.01 0.01 0.01 0.00 0.00 0.00 0.00 0.00 0.00
0.00 0.00 0.00 0.00 0.00 0.00 0.00 0.00 0.00 0.00 0.00 0.00 0.01 0.01 0.01 0.01 0.00 0.00 0.00 0.00 0.00 0.01 0.01 0.01 0.02 0.04 0.05 0.08 0.06 0.02 0.02 0.02 0.02 0.01 0.00 0.00 0.00 0.00 0.00 0.00 0.00 0.00 0.00
0.00 0.00 0.00 0.00 0.00 0.00 0.00 0.00 0.00 0.00 0.01 0.01 0.01 0.01 0.01 0.01 0.00 0.00 0.00 0.00 0.00 0.00 0.00 0.00 0.00 0.01 0.01 0.02 0.02 0.01 0.01 0.01 0.01 0.00 0.00 0.00 0.00 0.00 0.00 0.00 0.00 0.00 0.00
0.00 0.00 0.01 0.01 0.00 0.00 0.01 0.01 0.01 0.02 0.02 0.02 0.01 0.01 0.02 0.02 0.01 0.00 0.00 0.00 0.00 0.00 0.00 0.00 0.00 0.00 0.00 0.00 0.00 0.00 0.00 0.00 0.00 0.00 0.00 0.00 0.00 0.00 0.00 0.00 0.00 0.00 0.00
0.00 0.00 0.01 0.01 0.01 0.01 0.02 0.02 0.03 0.04 0.04 0.04 0.03 0.03 0.02 0.02 0.01 0.01 0.00 0.00 0.00 0.00 0.00 0.00 0.00 0.00 0.00 0.00 0.00 0.00 0.00 0.00 0.00 0.00 0.00 0.00 0.00 0.00 0.00 0.00 0.00 0.00 0.00
0.00 0.01 0.01 0.02 0.02 0.02 0.04 0.05 0.05 0.06 0.06 0.06 0.06 0.05 0.04 0.03 0.02 0.01 0.01 0.00 0.00 0.00 0.00 0.00 0.00 0.00 0.00 0.00 0.00 0.00 0.00 0.00 0.00 0.00 0.00 0.00 0.00 0.00 0.00 0.00 0.00 0.00 0.00
0.00 0.01 0.01 0.01 0.02 0.04 0.07 0.09 0.09 0.08 0.09 0.10 0.10 0.09 0.07 0.04 0.02 0.02 0.02 0.02 0.01 0.01 0.00 0.00 0.00 0.00 0.00 0.00 0.00 0.00 0.00 0.00 0.00 0.00 0.00 0.00 0.00 0.00 0.00 0.00 0.00 0.00 0.00
0.00 0.01 0.01 0.01 0.02 0.05 0.10 0.13 0.13 0.14 0.15 0.14 0.13 0.11 0.10 0.07 0.05 0.04 0.03 0.02 0.02 0.01 0.00 0.00 0.00 0.00 0.00 0.00 0.00 0.00 0.00 0.00 0.00 0.00 0.00 0.00 0.00 0.00 0.00 0.00 0.00 0.00 0.00
0.00 0.01 0.01 0.01 0.01 0.03 0.08 0.15 0.20 0.23 0.21 0.18 0.15 0.13 0.12 0.09 0.06 0.06 0.05 0.03 0.01 0.01 0.00 0.00 0.00 0.00 0.00 0.00 0.00 0.00 0.00 0.00 0.00 0.00 0.00 0.00 0.00 0.00 0.00 0.00 0.00 0.00 0.00
0.00 0.01 0.01 0.01 0.01 0.01 0.05 0.13 0.22 0.26 0.27 0.24 0.20 0.17 0.14 0.11 0.09 0.08 0.07 0.04 0.02 0.01 0.00 0.00 0.00 0.00 0.00 0.00 0.00 0.00 0.00 0.00 0.00 0.00 0.00 0.00 0.00 0.00 0.00 0.00 0.00 0.00 0.00
0.00 0.01 0.01 0.01 0.01 0.01 0.03 0.09 0.19 0.28 0.31 0.31 0.31 0.26 0.20 0.15 0.10 0.08 0.06 0.04 0.03 0.02 0.01 0.00 0.00 0.00 0.00 0.00 0.00 0.00 0.00 0.00 0.00 0.00 0.00 0.00 0.00 0.00 0.00 0.00 0.00 0.00 0.00
MSLP
1010.06 1010.20 1010.28 1010.28 1010.21 1010.08 1009.94 1009.84 1009.82 1009.88 1010.02 1010.21 1010.41 1010.57 1010.63 1010.57 1010.39 1010.10 1009.76 1009.40 1009.10 1008.89 1008.81 1008.86 1009.04 1009.30 1009.61 1009.94 1010.24 1010.49 1010.68 1010.80 1010.85 1010.83 1010.74 1010.57 1010.32 1009.98 1009.57 1009.10 1008.60 1008.11 1007.68
1010.52 1010.65 1010.71 1010.69 1010.57 1010.39 1010.20 1010.04 1009.98 1010.02 1010.15 1010.35 1010.55 1010.70 1010.74 1010.63 1010.38 1010.01 1009.57 1009.13 1008.75 1008.48 1008.37 1008.42 1008.60 1008.89 1009.23 1009.58 1009.90 1010.16 1010.35 1010.47 1010.52 1010.49 1010.41 1010.24 1010.00 1009.68 1009.28 1008.81 1008.31 1007.81 1007.36
1010.73 1010.85 1010.91 1010.88 1010.75 1010.55 1010.33 1010.16 1010.07 1010.10 1010.24 1010.44 1010.65 1010.81 1010.84 1010.71 1010.42 1009.99 1009.49 1008.98 1008.54 1008.22 1008.06 1008.08 1008.25 1008.52 1008.86 1009.21 1009.52 1009.78 1009.97 1010.09 1010.14 1010.13 1010.07 1009.93 1009.73 1009.45 1009.09 1008.67 1008.20 1007.73 1007.28
1010.66 1010.78 1010.85 1010.84 1010.72 1010.53 1010.32 1010.15 1010.06 1010.10 1010.24 1010.45 1010.68 1010.85 1010.89 1010.77 1010.47 1010.02 1009.48 1008.93 1008.43 1008.06 1007.84 1007.81 1007.93 1008.17 1008.48 1008.80 1009.10 1009.35 1009.53 1009.66 1009.73 1009.75 1009.72 1009.64 1009.50 1009.29 1009.00 1008.65 1008.25 1007.83 1007.43
1010.37 1010.48 1010.58 1010.60 1010.52 1010.37 1010.19 1010.04 1009.97 1010.01 1010.16 1010.39 1010.64 1010.83 1010.90 1010.79 1010.51 1010.06 1009.52 1008.93 1008.39 1007.96 1007.68 1007.57 1007.62 1007.79 1008.04 1008.32 1008.59 1008.83 1009.02 1009.16 1009.26 1009.32 1009.35 1009.33 1009.27 1009.14 1008.95 1008.69 1008.38 1008.05 1007.71
1009.94 1010.06 1010.19 1010.25 1010.24 1010.14 1010.00 1009.88 1009.83 1009.88 1010.04 1010.28 1010.55 1010.76 1010.86 1010.79 1010.54 1010.11 1009.57 1008.97 1008.38 1007.89 1007.52 1007.32 1007.28 1007.36 1007.53 1007.76 1007.99 1008.22 1008.42 1008.59 1008.74 1008.85 1008.94 1008.99 1009.01 1008.97 1008.87 1008.72 1008.51 1008.27 1008.02
1009.52 1009.64 1009.80 1009.92 1009.96 1009.92 1009.82 1009.73 1009.70 1009.76 1009.93 1010.17 1010.45 1010.68 1010.81 1010.78 1010.56 1010.17 1009.63 1009.01 1008.38 1007.81 1007.36 1007.05 1006.89 1006.87 1006.95 1007.12 1007.33 1007.55 1007.77 1007.98 1008.17 1008.34 1008.49 1008.61 1008.70 1008.74 1008.73 1008.68 1008.57 1008.43 1008.26
1009.21 1009.35 1009.54 1009.70 1009.78 1009.78 1009.72 1009.65 1009.62 1009.68 1009.84 1010.08 1010.36 1010.61 1010.77 1010.78 1010.59 1010.22 1009.70 1009.06 1008.39 1007.74 1007.18 1006.75 1006.48 1006.35 1006.35 1006.46 1006.64 1006.86 1007.10 1007.36 1007.60 1007.82 1008.03 1008.20 1008.35 1008.45 1008.52 1008.54 1008.52 1008.48 1008.40
1009.11 1009.26 1009.46 1009.64 1009.74 1009.76 1009.71 1009.64 1009.60 1009.65 1009.79 1010.02 1010.29 1010.55 1010.73 1010.77 1010.63 1010.29 1009.77 1009.13 1008.41 1007.69 1007.03 1006.50 1006.11 1005.87 1005.79 1005.85 1006.00 1006.24 1006.51 1006.80 1007.09 1007.36 1007.61 1007.82 1008.00 1008.14 1008.25 1008.33 1008.39 1008.42 1008.44
1009.28 1009.42 1009.61 1009.77 1009.85 1009.84 1009.77 1009.67 1009.61 1009.62 1009.74 1009.94 1010.21 1010.48 1010.68 1010.76 1010.65 1010.35 1009.86 1009.22 1008.48 1007.71 1006.97 1006.34 1005.85 1005.53 1005.38 1005.39 1005.53 1005.77 1006.08 1006.40 1006.73 1007.04 1007.30 1007.53 1007.72 1007.87 1008.00 1008.12 1008.23 1008.33 1008.43
1009.70 1009.81 1009.95 1010.05 1010.06 1009.99 1009.85 1009.70 1009.59 1009.55 1009.63 1009.81 1010.07 1010.34 1010.58 1010.69 1010.64 1010.40 1009.96 1009.35 1008.61 1007.83 1007.05 1006.36 1005.81 1005.43 1005.23 1005.20 1005.33 1005.57 1005.89 1006.25 1006.60 1006.92 1007.19 1007.41 1007.59 1007.74 1007.86 1007.99 1008.13 1008.28 1008.44
1010.34 1010.38 1010.42 1010.41 1010.32 1010.14 1009.91 1009.67 1009.49 1009.40 1009.43 1009.58 1009.82 1010.11 1010.37 1010.55 1010.57 1010.41 1010.05 1009.51 1008.83 1008.07 1007.31 1006.60 1006.02 1005.61 1005.37 1005.33 1005.44 1005.68 1006.01 1006.37 1006.73 1007.05 1007.31 1007.51 1007.67 1007.79 1007.89 1008.01 1008.16 1008.34 1008.55
1011.12 1011.05 1010.96 1010.80 1010.56 1010.25 1009.90 1009.56 1009.29 1009.13 1009.10 1009.22 1009.45 1009.75 1010.05 1010.29 1010.40 1010.34 1010.10 1009.67 1009.10 1008.43 1007.72 1007.06 1006.50 1006.08 1005.83 1005.77 1005.87 1006.10 1006.42 1006.77 1007.12 1007.42 1007.66 1007.84 1007.96 1008.04 1008.12 1008.23 1008.37 1008.56 1008.80
1011.94 1011.74 1011.50 1011.17 1010.78 1010.32 1009.84 1009.39 1009.02 1008.77 1008.69 1008.75 1008.96 1009.26 1009.60 1009.90 1010.12 1010.19 1010.09 1009.81 1009.39 1008.85 1008.26 1007.68 1007.17 1006.78 1006.55 1006.47 1006.56 1006.76 1007.05 1007.38 1007.71 1007.98 1008.20 1008.35 1008.43 1008.49 1008.54 1008.62 1008.75 1008.94 1009.18
1012.73 1012.39 1011.99 1011.50 1010.95 1010.35 1009.75 1009.19 1008.72 1008.40 1008.23 1008.24 1008.40 1008.68 1009.04 1009.40 1009.70 1009.91 1009.97 1009.87 1009.63 1009.27 1008.83 1008.38 1007.96 1007.62 1007.41 1007.33 1007.39 1007.56 1007.82 1008.11 1008.40 1008.65 1008.83 1008.96 1009.02 1009.06 1009.08 1009.14 1009.24 1009.41 1009.65
1013.41 1012.94 1012.40 1011.78 1011.11 1010.40 1009.70 1009.04 1008.49 1008.07 1007.81 1007.74 1007.83 1008.07 1008.41 1008.79 1009.17 1009.49 1009.71 1009.80 1009.75 1009.59 1009.33 1009.03 1008.72 1008.46 1008.28 1008.20 1008.24 1008.37 1008.58 1008.83 1009.08 1009.30 1009.47 1009.58 1009.64 1009.66 1009.68 1009.72 1009.80 1009.94 1010.14
1013.91 1013.35 1012.71 1012.01 1011.26 1010.48 1009.72 1009.00 1008.37 1007.86 1007.51 1007.33 1007.32 1007.47 1007.75 1008.13 1008.54 1008.95 1009.29 1009.55 1009.70 1009.73 1009.66 1009.52 1009.34 1009.16 1009.03 1008.96 1008.98 1009.07 1009.23 1009.44 1009.66 1009.86 1010.03 1010.14 1010.21 1010.24 1010.26 1010.29 1010.35 1010.45 1010.61
1014.18 1013.56 1012.89 1012.17 1011.40 1010.62 1009.84 1009.09 1008.40 1007.81 1007.35 1007.05 1006.91 1006.93 1007.11 1007.43 1007.83 1008.27 1008.71 1009.11 1009.42 1009.64 1009.75 1009.77 1009.72 1009.64 1009.56 1009.51 1009.52 1009.59 1009.71 1009.89 1010.08 1010.28 1010.45 1010.59 1010.68 1010.74 1010.77 1010.80 1010.85 1010.93 1011.04
1014.19 1013.57 1012.92 1012.23 1011.52 1010.78 1010.03 1009.28 1008.56 1007.90 1007.33 1006.89 1006.60 1006.47 1006.52 1006.72 1007.07 1007.50 1007.99 1008.48 1008.93 1009.30 1009.57 1009.75 1009.83 1009.86 1009.84 1009.83 1009.84 1009.89 1010.00 1010.16 1010.35 1010.55 1010.74 1010.91 1011.05 1011.15 1011.21 1011.26 1011.30 1011.35 1011.42
1013.92 1013.35 1012.77 1012.17 1011.55 1010.89 1010.21 1009.49 1008.77 1008.05 1007.39 1006.81 1006.36 1006.07 1005.96 1006.03 1006.28 1006.68 1007.17 1007.71 1008.26 1008.75 1009.17 1009.49 1009.70 1009.83 1009.89 1009.93 1009.97 1010.03 1010.14 1010.29 1010.49 1010.71 1010.94 1011.15 1011.34 1011.48 1011.59 1011.66 1011.71 1011.75 1011.78
1013.41 1012.91 1012.42 1011.94 1011.43 1010.89 1010.29 1009.63 1008.92 1008.18 1007.44 1006.75 1006.15 1005.70 1005.43 1005.37 1005.50 1005.83 1006.30 1006.86 1007.47 1008.06 1008.60 1009.04 1009.38 1009.61 1009.77 1009.88 1009.96 1010.05 1010.18 1010.35 1010.57 1010.82 1011.08 1011.34 1011.58 1011.78 1011.93 1012.03 1012.10 1012.14 1012.15
1012.68 1012.26 1011.88 1011.51 1011.13 1010.70 1010.20 1009.61 1008.93 1008.18 1007.39 1006.61 1005.90 1005.32 1004.92 1004.72 1004.75 1005.00 1005.43 1005.99 1006.64 1007.31 1007.94 1008.49 1008.94 1009.29 1009.55 1009.74 1009.89 1010.03 1010.20 1010.40 1010.64 1010.92 1011.22 1011.52 1011.80 1012.05 1012.24 1012.38 1012.48 1012.53 1012.54
1011.80 1011.45 1011.15 1010.88 1010.60 1010.27 1009.86 1009.34 1008.71 1007.97 1007.17 1006.35 1005.57 1004.90 1004.40 1004.10 1004.05 1004.22 1004.61 1005.16 1005.83 1006.55 1007.26 1007.91 1008.47 1008.93 1009.29 1009.57 1009.79 1010.00 1010.21 1010.45 1010.73 1011.03 1011.36 1011.69 1012.01 1012.29 1012.53 1012.70 1012.83 1012.90 1012.93
1010.84 1010.53 1010.28 1010.08 1009.86 1009.60 1009.26 1008.81 1008.22 1007.53 1006.75 1005.93 1005.13 1004.42 1003.87 1003.51 1003.40 1003.52 1003.87 1004.41 1005.09 1005.84 1006.61 1007.34 1007.99 1008.55 1009.01 1009.38 1009.69 1009.97 1010.23 1010.51 1010.81 1011.14 1011.49 1011.84 1012.17 1012.48 1012.74 1012.95 1013.11 1013.22 1013.29
1009.88 1009.57 1009.33 1009.13 1008.95 1008.72 1008.43 1008.03 1007.50 1006.86 1006.13 1005.35 1004.58 1003.88 1003.32 1002.95 1002.81 1002.90 1003.23 1003.75 1004.42 1005.19 1006.00 1006.79 1007.52 1008.16 1008.71 1009.18 1009.57 1009.91 1010.23 1010.54 1010.86 1011.20 1011.55 1011.90 1012.25 1012.57 1012.85 1013.10 1013.29 1013.44 1013.55
1008.95 1008.60 1008.33 1008.11 1007.91 1007.69 1007.42 1007.06 1006.59 1006.02 1005.36 1004.65 1003.95 1003.30 1002.77 1002.42 1002.27 1002.35 1002.66 1003.16 1003.82 1004.59 1005.42 1006.25 1007.03 1007.74 1008.37 1008.91 1009.37 1009.77 1010.13 1010.47 1010.81 1011.15 1011.50 1011.85 1012.19 1012.52 1012.82 1013.09 1013.31 1013.51 1013.67
Thickness
5801 5803 5801 5797 5792 5786 5782 5776 5770 5768 5767 5763 5760 5759 5759 5763 5765 5766 5766 5764 5763 5762 5759 5757 5754 5750 5748 5747 5743 5739 5737 5736 5735 5731 5731 5736 5739 5741 5742 5741 5741 5743 5748
5793 5794 5793 5789 5783 5777 5773 5769 5765 5761 5758 5755 5753 5753 5753 5755 5757 5758 5758 5757 5756 5755 5752 5748 5747 5744 5742 5740 5737 5732 5729 5729 5727 5722 5718 5717 5724 5732 5736 5734 5733 5735 5739
5786 5785 5784 5781 5778 5773 5768 5764 5760 5756 5753 5750 5747 5745 5744 5744 5744 5745 5747 5748 5748 5748 5746 5744 5743 5740 5738 5735 5734 5730 5725 5722 5722 5719 5713 5707 5707 5715 5724 5725 5725 5726 5729
5780 5779 5779 5776 5773 5770 5766 5760 5755 5750 5747 5743 5738 5734 5730 5728 5730 5732 5736 5738 5739 5739 5740 5740 5738 5736 5734 5732 5730 5727 5723 5719 5715 5714 5712 5709 5707 5703 5706 5713 5715 5718 5720
5774 5774 5774 5773 5771 5767 5760 5754 5749 5744 5740 5737 5732 5727 5723 5722 5723 5724 5726 5728 5730 5731 5732 5732 5731 5730 5728 5726 5724 5721 5718 5715 5712 5709 5706 5703 5701 5701 5697 5697 5702 5706 5712
5770 5771 5771 5769 5764 5760 5753 5746 5740 5735 5732 5728 5724 5720 5716 5714 5714 5714 5716 5718 5720 5722 5723 5723 5723 5722 5720 5719 5717 5715 5712 5710 5707 5704 5701 5697 5694 5693 5692 5690 5691 5693 5700
5763 5761 5759 5756 5752 5747 5741 5736 5730 5724 5722 5718 5714 5711 5708 5706 5704 5704 5706 5708 5710 5712 5713 5714 5714 5714 5713 5711 5709 5706 5704 5702 5699 5697 5695 5693 5691 5691 5688 5685 5684 5685 5689
5754 5752 5749 5745 5741 5737 5731 5726 5720 5715 5712 5708 5704 5701 5698 5695 5694 5694 5695 5697 5699 5702 5704 5705 5705 5705 5704 5702 5700 5697 5695 5693 5690 5689 5688 5687 5686 5685 5684 5682 5679 5676 5678
5746 5744 5742 5738 5734 5729 5724 5720 5714 5708 5704 5699 5694 5689 5686 5684 5682 5683 5683 5685 5687 5691 5693 5694 5695 5695 5694 5692 5690 5687 5685 5683 5681 5679 5679 5679 5679 5680 5679 5678 5676 5672 5668
5741 5739 5736 5733 5729 5725 5720 5715 5709 5703 5697 5691 5686 5680 5676 5673 5672 5671 5671 5672 5674 5677 5680 5681 5682 5683 5683 5682 5679 5678 5676 5673 5671 5670 5670 5670 5671 5672 5673 5673 5672 5671 5667
5732 5730 5729 5727 5724 5720 5715 5709 5704 5697 5691 5685 5678 5673 5668 5664 5661 5659 5659 5660 5662 5664 5666 5667 5668 5669 5670 5670 5669 5667 5666 5663 5662 5662 5661 5662 5663 5663 5664 5665 5665 5664 5663
5721 5721 5720 5718 5716 5712 5708 5704 5699 5693 5687 5680 5673 5667 5661 5657 5653 5650 5649 5649 5649 5651 5653 5654 5654 5655 5657 5658 5657 5656 5655 5654 5652 5652 5653 5652 5654 5654 5656 5657 5658 5658 5657
5708 5706 5705 5703 5703 5702 5700 5697 5692 5687 5682 5675 5668 5661 5655 5650 5646 5642 5640 5639 5639 5639 5641 5641 5642 5642 5643 5644 5644 5643 5642 5641 5641 5641 5642 5642 5644 5645 5646 5648 5649 5649 5649
5693 5691 5688 5687 5687 5688 5688 5687 5685 5682 5677 5670 5663 5656 5650 5645 5640 5636 5633 5631 5630 5630 5630 5630 5631 5631 5631 5631 5631 5630 5629 5628 5628 5629 5630 5632 5634 5635 5637 5639 5639 5639 5637
5678 5674 5671 5670 5671 5672 5673 5676 5676 5675 5672 5665 5659 5652 5647 5641 5635 5631 5628 5625 5623 5623 5622 5621 5620 5620 5620 5621 5620 5620 5619 5617 5617 5618 5620 5623 5625 5627 5629 5629 5628 5628 5626
5662 5661 5659 5658 5657 5658 5660 5663 5666 5667 5665 5661 5656 5650 5643 5636 5631 5627 5623 5620 5618 5617 5615 5614 5613 5612 5612 5612 5612 5612 5610 5609 5609 5609 5611 5613 5615 5617 5618 5619 5620 5620 5618
5646 5645 5645 5644 5644 5645 5646 5649 5655 5658 5658 5656 5652 5647 5640 5633 5628 5624 5619 5615 5613 5611 5610 5608 5607 5605 5605 5606 5606 5605 5604 5602 5602 5602 5604 5606 5606 5608 5608 5609 5611 5611 5611
5628 5627 5627 5629 5630 5632 5634 5638 5643 5647 5649 5649 5647 5644 5638 5631 5626 5620 5616 5612 5609 5607 5605 5603 5601 5600 5600 5600 5600 5599 5598 5596 5595 5595 5596 5596 5597 5599 5600 5601 5601 5601 5602
5610 5609 5609 5611 5613 5615 5618 5622 5628 5632 5636 5639 5640 5640 5636 5630 5623 5618 5614 5609 5605 5603 5602 5600 5597 5595 5595 5596 5596 5595 5592 5589 5587 5588 5590 5591 5591 5593 5595 5594 5593 5594 5594
5597 5595 5595 5595 5595 5597 5600 5603 5608 5614 5619 5624 5630 5634 5633 5628 5623 5618 5613 5608 5604 5601 5599 5596 5594 5593 5591 5593 5592 5591 5587 5583 5581 5582 5584 5586 5587 5588 5589 5588 5587 5586 5585
5579 5578 5576 5575 5575 5577 5579 5582 5588 5594 5602 5610 5617 5623 5627 5625 5622 5617 5612 5607 5602 5598 5595 5593 5591 5589 5589 5590 5590 5589 5586 5583 5581 5579 5579 5580 5583 5583 5583 5583 5582 5581 5581
5561 5557 5555 5554 5554 5553 5555 5560 5565 5575 5585 5595 5604 5612 5618 5621 5619 5614 5609 5605 5601 5595 5592 5590 5587 5586 5586 5587 5588 5588 5587 5585 5581 5578 5577 5577 5579 5579 5579 5578 5578 5578 5576
5542 5539 5536 5535 5534 5532 5533 5536 5545 5554 5564 5576 5587 5597 5608 5613 5615 5611 5608 5603 5599 5595 5591 5589 5587 5584 5583 5584 5586 5586 5585 5584 5581 5578 5577 5576 5576 5575 5574 5574 5574 5572 5570
5527 5523 5520 5518 5518 5516 5516 5518 5526 5535 5545 5557 5570 5583 5593 5602 5607 5608 5607 5603 5599 5595 5592 5589 5587 5584 5581 5580 5581 5581 5581 5580 5578 5575 5574 5573 5572 5570 5570 5569 5567 5566 5563
5518 5513 5509 5508 5508 5507 5505 5507 5512 5519 5528 5540 5555 5568 5581 5593 5599 5602 5605 5605 5604 5601 5596 5593 5591 5587 5583 5583 5583 5582 5579 5577 5575 5571 5568 5566 5565 5564 5562 5561 5561 5559 5558
5509 5506 5504 5503 5503 5501 5500 5500 5502 5507 5515 5526 5540 5553 5568 5582 5591 5596 5598 5600 5601 5599 5597 5595 5593 5591 5590 5586 5582 5581 5580 5577 5574 5570 5566 5563 5562 5561 5559 5557 5556 5554 5553